STARLINK-32710, 62604

Orbit data source: Space-Track

STARLINK-32710, 62604 is a payload satellite owned by SpaceX/Seattle (US) in LEO that was launched on Mon, 13 Jan 2025 UTC via an FALCON 9 launch vehicle from the Air Force Eastern Test Range (AFETR). Payloads include a variety of satellites, spacecraft, and rockets equipped with specific instruments for various scientific and technological missions. These include communications satellites like Starlink; space stations such as the ISS; scientific satellites like the Hubble; Earth observation satellites from companies like Planet Labs, Umbra, and HawkEye 360; GPS; miniature CubeSats for education and research; and military/defense satellites.

Loading next visibility...
STARLINK-32710 details
Identifier
62604, 2025-008T
Orbit
LEO
Last TLE update9 hours ago
Origin
Flag of USSpaceX/Seattle (US)
ManufacturerSpaceX/Seattle
MissionOperational spacecraft
Bus & MotorSTARLINK V2M, Unknown motor
Mass730 kg wet, ~700 kg dry
Launch date (UTC)
2025-01-13 (1 month ago)
Launch vehicle
FALCON 9
Launch site
Air Force Eastern Test Range (AFETR)
Object type
Payload
Rocket body
Debris
Shape & HBRUnknown
Radar Cross SectionLarge (>1 m²)

Expand to show TLE details & history

TLE from 9 hours ago
0 STARLINK-32710
1 62604U 25008T   25047.13977102 -.00138817  00000-0 -29071-2 0  9992
2 62604  43.0006 302.0699 0001870 260.4992  99.5655 15.45129843  6401
Epoch: 2025-02-16T03:21Z
Definitive object data (Epoch: 2025-02-16T03:21:16.216Z)
Latitude0.00001°
Longitude105.37523°
Altitude430.982 km
Speed7.655 km/s
True Right ascension20h 08m 16s
True Declination0° 00' 00"
Sunlit
Object was in daylight at TLE epoch
Visualization TLE readout
Latitude-39.70748°
Longitude40.8749°
Altitude442.095 km
Speed7.648 km/s
Apparent Right ascension20h 05m 42s
Apparent Declination-83° 16' 56"
Sunlit
Object is in daylight
Visualization observer readout
Local Sidereal Time15:08:27
Azimuth171.805° S
Elevation-37.807°
Doppler factor1
Orbital elements
Apogee altitude434.23 km
Perigee altitude431.683 km
Semi-major axis6,811.093 km
Eccentricity0.000187
Inclination43.0006°
RAAN302.0699°
Arg. of periapsis260.4992°
True anomaly99.58663°
Mean anomaly99.5655°
Eccentric anomaly99.57607°
Mean motion3.86116 °/min
BSTAR-0.0029071
Orbital period93.24 mins
Loading maneuver chart data...
Loading historical data...
Loading historical data...
Loading historical data...
Loading historical data...
Loading historical data...
Loading historical data...
Loading historical data...

STARLINK-32710 Visibility forecast

Observer location: undefined°, undefined

Span
Click to sort rows by Start time (UTC) header in descending order
Start Az.
Max El. time (UTC)
Max El. Az.
Max El.
End time (UTC)
End Az.
5 mins2025-02-16 20:39:56.704Z224.757° SW2025-02-16 20:41:56.704Z134.775° SE38.995°2025-02-16 20:44:56.704Z77.239° E
4 mins2025-02-16 22:17:56.704Z286.481° WNW2025-02-16 22:19:56.704Z22.513° NE37.172°2025-02-16 22:21:56.704Z66.403° ENE
5 mins2025-02-16 23:55:56.704Z300.094° NW2025-02-16 23:57:56.704Z41.625° NE39.022°2025-02-17 00:00:56.704Z90.904° ESE
4 mins2025-02-17 01:33:56.704Z261.67° W2025-02-17 01:34:56.704Z228.943° WSW33.621°2025-02-17 01:37:56.704Z137.902° SSE
|